Location: Seasalter
(51.3333°N, 1.0167°E)
Time: 11:52:36
(UTC+00:00)

Cosmos 332 Rocket - Pass Details

Date: 26 September 2023
Orbit: 678 x 701 km, 74.0° (Epoch: 10 December)

Event Time Altitude Azimuth Distance (km) Brightness Sun altitude
Exits shadow 02:52:06 48° 128° (SE) 887 4.3 -26.6°
Maximum altitude 02:52:33 50° 108° (ESE) 866 4.4 -26.5°
Drops below altitude 10° 02:57:11 10° 33° (NNE) 2,129 7.2 -26.0°
Sets 02:59:32 0° 29° (NNE) 3,047 8.1 -25.7°
